Погода в Поселке совхоза Комсомолец

Россия / Тамбовская область     52°46′07″N   41°17′18″E
В апреле 2022 года жителям России запретили посещать сайт meteo.paraplan.net по решению Генеральной прокуратуры. Аудитория сайта уменьшилась в 10 раз. Владельцы сайта не видят смысла в поддержке погодного сервера в таких условиях. Сайт будет закрыт в октябре.
темп.,
°C
ветер,
м/с
пор.,
м/с
влажн.,
%
обл.,
%
осадки,
мм/ч
давл.,
гПа
погр.,
м
5 октября, ср
ср500:00+10ююз5119174 1.2 1015326
03:00+10юз41187100 1.2 1015717
06:00+8юз510855 0.0 1016497
09:00+10юз7107574 0.0 1017866
12:00+10юз6974100 0.1 10171356
15:00+10юз5980100 0.8 10171367
18:00+9юз4882100 1.7 10191036
21:00+7зюз498973 1.8 1019296
6 октября, чт
чт600:00+6зюз499432 0.1 1020275
03:00+7з598690 0.1 1020546
06:00+6зюз499198 0.1 1021311
09:00+8з4686100 0.1 1021382
12:00+11з566437 0.2 10211230
15:00+11з6671100 0.3 1021745
18:00+9юз3789100 0.0 1021309
21:00+9зюз48934 0.1 1021212
7 октября, пт
пт700:00+8юз389555 0.0 1021174
03:00+8юз489562 0.0 1020195
06:00+8зюз4119590 0.0 1019237
09:00+11з598416 0.0 1020372
12:00+13сз797785 0.0 1021781
15:00+15сз79570 0.0 10221232
18:00+10ссз48800 0.0 1024201
21:00+8сз38850 0.0 1026191
8 октября, сб
сб800:00+7сз35900 0.0 1027100
03:00+6зсз22921 0.0 102732
06:00+6зюз33920 0.0 102733
09:00+9зюз34760 0.0 1028239
12:00+13зюз33560 0.0 1027649
15:00+15юз34480 0.0 1025834
18:00+11юз33625 0.0 102523
21:00+9ююз336950 0.0 102539
9 октября, вс
вс900:00+8ююз3576100 0.0 102467
03:00+8ююз358337 0.0 102489
06:00+7ю368168 0.0 1023106
09:00+11ю5965100 0.0 1022283
12:00+15ююз695698 0.0 1020784
15:00+17ююз6854100 0.0 10191248
18:00+13ююз357083 0.0 101967
21:00+11ююз3475100 0.0 101852